Location: La Plant
(45.1447°N, 100.6515°W)
Time: 20:07:52
(UTC+00:00)

X-37B - Visible Passes

Search period start: 29 November 2020 00:00
Search period end: 09 December 2020 00:00
Orbit: 384 x 389 km, 45.0° (Epoch: 12 November)

Date Brightness Start Highest point End Pass type
(mag) Time Alt. Az. Time Alt. Az. Time Alt. Az.
29 Nov 1.4 00:51:02 10° SW 00:53:55 38° SSE 00:53:55 38° SSE visible
29 Nov 2.2 23:52:54 10° SSW 23:55:34 25° SSE 23:58:00 11° E visible
30 Nov 2.8 01:28:46 10° WSW 01:30:16 25° WSW 01:30:16 25° WSW visible
01 Dec 0.9 00:30:16 10° WSW 00:33:23 57° SSE 00:34:20 37° ESE visible
01 Dec 1.6 23:31:54 10° SW 23:34:53 38° SSE 23:37:52 10° E visible
02 Dec 1.4 01:08:12 10° W 01:10:39 50° W 01:10:39 50° W visible
03 Dec 0.6 00:09:38 10° WSW 00:12:48 75° S 00:14:41 22° E visible
03 Dec 3.7 01:46:14 10° W 01:46:57 16° W 01:46:57 16° W visible
04 Dec 0.4 00:47:39 10° W 00:50:50 89° NW 00:51:00 79° E visible
04 Dec 0.6 23:49:04 10° W 23:52:14 88° S 23:55:05 12° E visible
05 Dec 2.7 01:25:42 10° W 01:27:22 28° W 01:27:22 28° W visible
06 Dec 0.5 00:27:06 10° W 00:30:18 83° S 00:31:30 34° ESE visible
06 Dec 0.6 23:28:31 10° W 23:31:42 90° N 23:34:53 10° E visible
07 Dec 1.5 01:05:10 10° W 01:08:00 46° SW 01:08:00 46° SW visible
08 Dec 0.9 00:06:33 10° W 00:09:43 66° SSW 00:12:20 14° ESE visible
08 Dec 3.6 01:43:35 10° W 01:44:37 15° WSW 01:44:37 15° WSW visible
